Погода Никольское

Погода Никольское : погода сейчас, прогноз погоды и архив. Всё, что Вы хотите узнать о погоде Никольское!

Хотите узнать прогноз погоды Никольское? Тогда Вам сюда: Погода Никольское

Поиск расширенной информации на нашем сайте:

Другие новости

Новости СМИ2

Главная страница сайта

Новости сайта

03.07.2017

Напоминаем, что на нашем специализированном сайте Метеоцентр.Азия вы можете получить высокодетализированные автоматические прогнозы погоды по пунктам России, СНГ и мира в авиационном формате (включающие направление и скорость ветра, видимость, явления погоды, количество и форму облачности, нижнюю и верхнюю границу облачности).

Рекомендуем: для Вас архив аудиокниг в UA-IX

Погода Никольское - сегодня

Время (UTC), дата Ветер
(°,м/с) 
Видим.   Явления Облачность Т
(°С)
Тd
(°С)
f(%) Тe
(°С)
Pmin
(гПа)
dP
(гПа)
Po
(мм)
O2
(г/м3)
Тmin Tmax R s Состояние
почвы
21 17.05.18 100 (В) 8-12{14}  20000 м    10/10 600 м 
[Sc]
+4 +1.9 86 +1  1011.7  757  300  +3         
09 18.05.18 080 (В) 10-16{19}  20000 м    10/10 600 м 
[Sc]
+3.9 +0.4 78 1008.9  0.5  755  300    +6.3       
21 18.05.18 060 (СВ) 13-20{24}  10 км  слаб. ливневой дождь  8/8 600 м кучево-дожд. 
[Cb cap]
+4.7 +0.6 75 1008.2  755  299  +3.4    0.1  мокрый или
старый снег
10-40% 
09 19.05.18 030 (СВ) 9-14{15}  20000 м  {ливн. осадки}  9/9 600 м 
[Sc]
+2.6 +0.8 88 -1  1014.8  1.6  759  303    +5  0.1     
15 19.05.18 020 (С) 20000 м    8/8 600 м 
[Sc]
+1.7 +0.5 92 -1  1017  0.9  761  305           
18 19.05.18 360 (С) 20000 м    10/10 600 м 
[Sc]
+2.1 +0.6 90 -1  1018.1  762  305           
00 20.05.18 360 (С) 20000 м    10/10 600 м 
[Sc]
+4 +1.2 82 +3  1019.2  0.6  763  303           
03 20.05.18 290 (З) 20000 м    10/10 600 м 
[Sc]
+3.6 +1.3 85 +2  1020.4  1.2  764  304           
06 20.05.18 350 (С) 20000 м    10/10 600 м 
[Sc]
+3.7 +0.9 82 +2  1021  0.6  764  304           
09 20.05.18 060 (СВ) 20000 м    10/10 600 м 
[Sc]
+2.3 +0.2 86 +2  1021.7  0.6  765  305           
12 20.05.18 170 (Ю) 20000 м    10/10 600 м 
[Sc]
+2.3 +0.7 89 +2  1022.4  0.8  765  306           
15 20.05.18 200 (Ю) 20000 м    10/10 600 м 
[Sc]
+2.4 +0.7 89 +2  1022  -0.5  765  305           
18 20.05.18 180 (Ю) 20000 м    10/10 600 м 
[Sc]
+2 +0.9 92 -1  1022.7  0.7  765  306           
21 20.05.18 170 (Ю) 20000 м    10/10 600 м 
[Sc]
+2.6 +1.4 92 +1  1021  -1.6  764  305  +1.8      мокрый или
старый снег
10-40% 
00 21.05.18 180 (Ю) 20000 м    10/10 600 м 
[Sc]
+3 +1.6 91 +1  1020.3  -0.7  764  304           
03 21.05.18 180 (Ю) 20000 м    10/10 600 м 
[Sc]
+4 +1.9 86 +2  1017.7  -2.6  762  302           
06 21.05.18 170 (Ю) 6{10}  20000 м    10/10 600 м 
[Sc]
+3.6 +1.9 89 +1  1015.5  -2.2  760  302           
21 21.05.18 110 (В) 8-12{13}  10 км  слаб. ливневой дождь  10/10 200 м кучево-дожд. 
[Cb cap]
+4 +3.1 94 +1  996.2  -3.8  746  296  +2.5    мокрый или
старый снег
10-40% 
03 22.05.18 180 (Ю) 20000 м  {ливн. осадки}  9/9 600 м 
[Sc]
+4.9 +4 94 +3  990.5  -2.7  741  293           
06 22.05.18 210 (ЮЗ) 10 км  слаб. ливневой дождь  10/10 200 м кучево-дожд. 
[Cb cap]
+4 +3.3 95 +5  989.4  -1  740  294           
12 22.05.18 050 (СВ) 20000 м  {ливн. осадки}  9/9 600 м кучево-дожд. 
[Cb cap]
+3.2 +2.9 98 +1  988.4  -0.4  740  294           
15 22.05.18 030 (СВ) 10 км  слаб. ливневой дождь  10/10 600 м кучево-дожд. 
[Cb cap]
+3 +2.8 99 +1  987.7  -0.7  739  294           
18 22.05.18 010 (С) 10 км  слаб. ливневой дождь  10/10 300 м кучево-дожд. 
[Cb cap]
+3.1 +2.6 97 +1  988.2  0.5  740  294           
21 22.05.18 340 (С) 20000 м  в посл. час ливневой дождь  9/9 600 м кучево-дожд. 
[Cb cap]
+3.9 +2.7 92 +2  989  0.8  740  294  +2.8    мокрый или
старый снег
10-40% 
09 23.05.18 360 (С) 9-12{15}  10 км  слаб. ливневой дождь  10/10 600 м кучево-дожд. 
[Cb cap]
+3.3 +3 98 -1  995.5  2.8  745  296    +4.6  0.4     
Время (UTC), дата Ветер
(°,м/с) 
Видим.   Явления Облачность Т
(°С)
Тd
(°С)
f(%) Тe
(°С)
Pmin
(гПа)
dP
(гПа)
Po
(мм)
O2
(г/м3)
Тmin Tmax R s Состояние
почвы

Для получения пояснительной информации подведите курсор к названию столбца.

ПОГОДА Никольское - архив

Всё, что Вы хотите узнать о погоде Никольское - удобно и подробно!

Выберите нужную дату (начиная с 1 января 2015* года) и нажмите кнопку "Найти".
Будут отображены архивные сводки погоды по пункту Никольское, начиная с указанной даты.


Отображать данные в формате CSV (для использования в таблицах Excel)


Внимание! Наш архив погоды предназначен исключительно для личного некоммерческого использования в познавательных целях. Если Вам необходимы официальные справки о состоянии погоды (для производственных, юридических, коммерческих и т.п. целей), обращайтесь в органы Росгидромета.

*Примечание: данная дата относится к архиву по метеостанциям СССР (Россия, СНГ, Балтия).
Архив по метеостанциям Зарубежной Европы и Азии (кроме Китая) хранится 10 дней, по другим регионам земного шара (Китай, Африка, Америка, Австралия, Океания) - 1 день.

Никольское - район местоположения метеостанции


Название, широта, долгота, высота метеостанции:
Никольское 55.2°ш. 166°д. 18 м над ур. моря [Российская Федерация]

Дополнительная информация

В oтличие oт бoльшинства пoгoдных сайтoв мы публикуем пoдрoбную метеoинфoрмацию в детальнoм прoфессиoнальнoм фoрмате.

Характеристики температуры и влажнoсти вoздуха измеряются на высoте 2 м в тени вдали oт зданий и деревьев.
Скoрoсть ветра измеряется на высoте 10 м (на урoвне рoста челoвека скoрoсть ветра ниже в 1.5-2 раза). Если метеoстанция нахoдится в гoрoде или в лесу, тo скoрoсть ветра занижена на 2-4 м/с пo сравнению с oткрытым местoм. Скoрoсть ветра над акватoриями крупных рек и oзёр, а также на вершинах хoлмoв на 2-5 м/с выше, чем в oбычных услoвиях.
Атмoсфернoе давление в разных тoчках местнoсти мoжет значительнo oтличаться oт давления на метеoстанции, в зависимoсти oт услoвий рельефа (при пoдъёме на 10 м давление пoнижается примернo на 1 мм рт.ст.).